Charlottetown, Prince Edward Island

9:44 PM ADT on August 31, 2016 (GMT -0300)
Charlottetown

Weather History for 71706 - September, 2013

Change the Weather History Date:

Tuesday, September 10, 2013

  Actual Average Record
Temperature  
Mean Temperature 58 °F -  
Max Temperature 64 °F 61 °F - ()
Min Temperature 53 °F 45 °F - ()
Degree Days  
Heating Degree Days 6    
Growing Degree Days 8 (Base 50)    
Moisture  
Dew Point 54 °F    
Average Humidity 82    
Maximum Humidity 88    
Minimum Humidity 70    
Precipitation  
Precipitation 0.00 in 0.13 in - ()
Sea Level Pressure  
Sea Level Pressure 30.11 in    
Wind  
Wind Speed 11 mph ()    
Max Wind Speed 17 mph    
Max Gust Speed 24 mph    
Visibility 15.0 miles    
Events Rain    
T = Trace of Precipitation, MM = Missing Value Source: Averaged Metar Reports

Daily Weather History Graph

Daily Weather History Graph

Search for Another Location

Airport or City:

Trip Planner

Search our weather history database for the weather conditions in past years. The results will help you decide how hot, cold, wet, or windy it might be!

Date:

Astronomy

Sep. 10, 2013 Rise Set
Actual Time 6:44 AM ADT 7:33 PM ADT
Civil Twilight 6:13 AM ADT 8:03 PM ADT
Nautical Twilight 5:37 AM ADT 8:40 PM ADT
Astronomical Twilight 4:59 AM ADT 9:17 PM ADT
Moon 12:25 PM ADT (9/10) 10:12 PM ADT (9/10)
Length of Visible Light 13h 49m
Length of Day
12h 49m
Waxing Crescent, 27% of the Moon is Illuminated
Sep 10
Waxing Crescent
Sep 12
First Quarter
Sep 19
Full
Sep 27
Last Quarter
Oct 4
New

Hourly Weather History & Observations

Time (ADT) Temp. Dew Point Humidity Pressure Visibility Wind Dir Wind Speed Gust Speed Precip Events Conditions
12:00 AM 53.6 °F 46.4 °F 77% 30.08 in 15.0 mi SW 13.8 mph - N/A   Clear
1:00 AM 53.6 °F 48.2 °F 82% 30.08 in 15.0 mi SW 11.5 mph 20.7 mph N/A   Clear
2:00 AM 53.6 °F 48.2 °F 82% 30.07 in 15.0 mi SW 9.2 mph 18.4 mph N/A   Clear
3:00 AM 54 °F 50 °F 83% 30.07 in 15 mi SW 12.7 mph - -  
3:00 AM 53.6 °F 50.0 °F 88% 30.06 in 15.0 mi SW 12.7 mph - N/A   Clear
4:00 AM 55.4 °F 51.8 °F 88% 30.06 in 15.0 mi SW 12.7 mph 18.4 mph N/A   Clear
5:00 AM 55.4 °F 51.8 °F 88% 30.07 in 15.0 mi SW 12.7 mph 18.4 mph N/A   Clear
6:00 AM 55.4 °F 51.8 °F 88% 30.07 in 15.0 mi SW 15.0 mph 20.7 mph N/A   Partly Cloudy
7:00 AM 55.4 °F 51.8 °F 88% 30.08 in 15.0 mi SSW 12.7 mph - N/A   Scattered Clouds
8:00 AM 57.2 °F 53.6 °F 88% 30.10 in 15.0 mi SW 10.4 mph 20.7 mph N/A   Mostly Cloudy
9:00 AM 60 °F 54 °F 75% 30.12 in 15 mi SW 15.0 mph - -   Partly Cloudy
9:00 AM 60.8 °F 53.6 °F 77% 30.12 in 15.0 mi SW 17.3 mph 23.0 mph N/A   Mostly Cloudy
10:00 AM 60.8 °F 55.4 °F 82% 30.12 in 15.0 mi SW 11.5 mph 17.3 mph N/A   Mostly Cloudy
11:00 AM 60.8 °F 55.4 °F 82% 30.13 in 15.0 mi SW 13.8 mph 19.6 mph N/A   Overcast
12:00 PM 62.6 °F 55.4 °F 77% 30.13 in 15.0 mi SSW 16.1 mph 23.0 mph N/A   Overcast
1:00 PM 62.6 °F 55.4 °F 77% 30.11 in 15.0 mi SSW 15.0 mph 23.0 mph N/A   Mostly Cloudy
2:00 PM 62.6 °F 53.6 °F 72% 30.12 in 15.0 mi SW 15.0 mph 24.2 mph N/A   Mostly Cloudy
3:00 PM 63 °F 56 °F 70% 30.13 in 15 mi SW 11.5 mph - -   Mostly Cloudy
3:00 PM 62.6 °F 55.4 °F 77% 30.13 in 15.0 mi SW 11.5 mph - N/A   Mostly Cloudy
4:00 PM 62.6 °F 57.2 °F 82% 30.13 in 15.0 mi SW 8.1 mph - N/A   Overcast
5:00 PM 62.6 °F 57.2 °F 82% 30.13 in 15.0 mi WSW 9.2 mph - N/A   Overcast
6:00 PM 62.6 °F 57.2 °F 82% 30.13 in 15.0 mi SW 5.8 mph - N/A   Overcast
6:29 PM 62.6 °F 57.2 °F 82% 30.13 in 15.0 mi SW 8.1 mph - N/A Rain Light Rain Showers
7:00 PM 62.6 °F 55.4 °F 77% 30.13 in 15.0 mi WSW 10.4 mph - N/A Rain Light Rain Showers
8:00 PM 60.8 °F 57.2 °F 88% 30.13 in 15.0 mi SW 10.4 mph - N/A Rain Light Rain Showers
8:33 PM 60.8 °F 57.2 °F 88% 30.15 in 15.0 mi SW 8.1 mph - N/A   Mostly Cloudy
9:00 PM 61 °F 57 °F 82% 30.17 in 15 mi SW 6.9 mph - - Rain Light Rain Showers
9:00 PM 60.8 °F 57.2 °F 88% 30.16 in 15.0 mi SW 5.8 mph - N/A   Mostly Cloudy
10:00 PM 62.6 °F 55.4 °F 77% 30.16 in 15.0 mi SW 9.2 mph - N/A   Mostly Cloudy
11:00 PM 60.8 °F 57.2 °F 88% 30.16 in 15.0 mi SSW 5.8 mph - N/A   Overcast